カタログに戻る

CZ-6A DEB

運用中SSO
NORAD 56623·DEBRIS·🇨🇳 China

打ち上げ Nov 11, 2022 から Taiyuan Satellite Launch Center

Loading…

次のパス (今後24時間)

TLE

最新Source: Space-Track

元期: Sep 13, 2026, 03:36 UTC

1 56623U 22151AEX 26256.15013141  .00000954  00000-0  64958-3 0  9993
2 56623  98.9046 231.0356 0102572 148.9313 211.7972 13.99775108173545

AllMySatでCZ-6A DEBをリアルタイム追跡

Download on the App Store